Year,Month,Day,Hour,Minute,Value (Times are PST for temperature in C)
2019,03,21,00,00,9.80
2019,03,21,00,01,9.80
2019,03,21,00,02,9.80
2019,03,21,00,03,9.80
2019,03,21,00,04,9.70
2019,03,21,00,05,9.60
2019,03,21,00,06,9.60
2019,03,21,00,07,9.50
2019,03,21,00,08,9.40
2019,03,21,00,09,9.40
2019,03,21,00,10,9.30
2019,03,21,00,11,9.30
2019,03,21,00,12,9.30
2019,03,21,00,13,9.30
2019,03,21,00,14,9.20
2019,03,21,00,15,9.20
2019,03,21,00,16,9.20
2019,03,21,00,17,9.10
2019,03,21,00,18,9.10
2019,03,21,00,19,9.10
2019,03,21,00,20,9.10
2019,03,21,00,21,9.10
2019,03,21,00,22,9.10
2019,03,21,00,23,9.20
2019,03,21,00,24,9.40
2019,03,21,00,25,9.60
2019,03,21,00,26,9.80
2019,03,21,00,27,10.00
2019,03,21,00,28,10.20
2019,03,21,00,29,10.30
2019,03,21,00,30,10.40
2019,03,21,00,31,10.50
2019,03,21,00,32,10.50
2019,03,21,00,33,10.50
2019,03,21,00,34,10.50
2019,03,21,00,35,10.50
2019,03,21,00,36,10.40
2019,03,21,00,37,10.40
2019,03,21,00,38,10.30
2019,03,21,00,39,10.10
2019,03,21,00,40,10.00
2019,03,21,00,41,9.80
2019,03,21,00,42,9.70
2019,03,21,00,43,9.70
2019,03,21,00,44,9.60
2019,03,21,00,45,9.50
2019,03,21,00,46,9.40
2019,03,21,00,47,9.30
2019,03,21,00,48,9.20
2019,03,21,00,49,9.10
2019,03,21,00,50,9.00
2019,03,21,00,51,8.90
2019,03,21,00,52,8.80
2019,03,21,00,53,8.70
2019,03,21,00,54,8.70
2019,03,21,00,55,8.70
2019,03,21,00,56,8.60
2019,03,21,00,57,8.60
2019,03,21,00,58,8.50
2019,03,21,00,59,8.40
2019,03,21,01,00,8.40
2019,03,21,01,01,8.40
2019,03,21,01,02,8.40
2019,03,21,01,03,8.30
2019,03,21,01,04,8.30
2019,03,21,01,05,8.30
2019,03,21,01,06,8.30
2019,03,21,01,07,8.20
2019,03,21,01,08,8.20
2019,03,21,01,09,8.20
2019,03,21,01,10,8.20
2019,03,21,01,11,8.20
2019,03,21,01,12,8.20
2019,03,21,01,13,8.30
2019,03,21,01,14,8.40
2019,03,21,01,15,8.40
2019,03,21,01,16,8.40
2019,03,21,01,17,8.40
2019,03,21,01,18,8.30
2019,03,21,01,19,8.30
2019,03,21,01,20,8.20
2019,03,21,01,21,8.20
2019,03,21,01,22,8.20
2019,03,21,01,23,8.10
2019,03,21,01,24,8.10
2019,03,21,01,25,8.10
2019,03,21,01,26,8.10
2019,03,21,01,27,8.10
2019,03,21,01,28,8.10
2019,03,21,01,29,8.10
2019,03,21,01,30,8.10
2019,03,21,01,31,8.10
2019,03,21,01,32,8.10
2019,03,21,01,33,8.10
2019,03,21,01,34,8.10
2019,03,21,01,35,8.10
2019,03,21,01,36,8.10
2019,03,21,01,37,8.00
2019,03,21,01,38,8.00
2019,03,21,01,39,7.90
2019,03,21,01,40,7.80
2019,03,21,01,41,7.80
2019,03,21,01,42,7.80
2019,03,21,01,43,7.80
2019,03,21,01,44,7.80
2019,03,21,01,45,7.80
2019,03,21,01,46,7.80
2019,03,21,01,47,7.80
2019,03,21,01,48,7.70
2019,03,21,01,49,7.70
2019,03,21,01,50,7.70
2019,03,21,01,51,7.70
2019,03,21,01,52,7.60
2019,03,21,01,53,7.60
2019,03,21,01,54,7.60
2019,03,21,01,55,7.60
2019,03,21,01,56,7.60
2019,03,21,01,57,7.60
2019,03,21,01,58,7.60
2019,03,21,01,59,7.60
2019,03,21,02,00,7.70
2019,03,21,02,01,7.70
2019,03,21,02,02,7.70
2019,03,21,02,03,7.70
2019,03,21,02,04,7.70
2019,03,21,02,05,7.70
2019,03,21,02,06,7.60
2019,03,21,02,07,7.60
2019,03,21,02,08,7.60
2019,03,21,02,09,7.60
2019,03,21,02,10,7.60
2019,03,21,02,11,7.60
2019,03,21,02,12,7.50
2019,03,21,02,13,7.50
2019,03,21,02,14,7.50
2019,03,21,02,15,7.50
2019,03,21,02,16,7.50
2019,03,21,02,17,7.50
2019,03,21,02,18,7.50
2019,03,21,02,19,7.50
2019,03,21,02,20,7.50
2019,03,21,02,21,7.50
2019,03,21,02,22,7.50
2019,03,21,02,23,7.40
2019,03,21,02,24,7.40
2019,03,21,02,25,7.40
2019,03,21,02,26,7.30
2019,03,21,02,27,7.30
2019,03,21,02,28,7.30
2019,03,21,02,29,7.20
2019,03,21,02,30,7.20
2019,03,21,02,31,7.20
2019,03,21,02,32,7.10
2019,03,21,02,33,7.10
2019,03,21,02,34,7.00
2019,03,21,02,35,7.00
2019,03,21,02,36,6.90
2019,03,21,02,37,6.90
2019,03,21,02,38,6.90
2019,03,21,02,39,6.90
2019,03,21,02,40,7.00
2019,03,21,02,41,7.00
2019,03,21,02,42,7.00
2019,03,21,02,43,6.90
2019,03,21,02,44,6.90
2019,03,21,02,45,6.90
2019,03,21,02,46,6.90
2019,03,21,02,47,6.90
2019,03,21,02,48,6.80
2019,03,21,02,49,6.80
2019,03,21,02,50,6.90
2019,03,21,02,51,6.90
2019,03,21,02,52,6.90
2019,03,21,02,53,6.90
2019,03,21,02,54,7.00
2019,03,21,02,55,7.00
2019,03,21,02,56,7.10
2019,03,21,02,57,7.10
2019,03,21,02,58,7.10
2019,03,21,02,59,7.10
2019,03,21,03,00,7.10
2019,03,21,03,01,7.00
2019,03,21,03,02,6.90
2019,03,21,03,03,6.90
2019,03,21,03,04,6.90
2019,03,21,03,05,6.80
2019,03,21,03,06,6.80
2019,03,21,03,07,6.70
2019,03,21,03,08,6.70
2019,03,21,03,09,6.70
2019,03,21,03,10,6.70
2019,03,21,03,11,6.70
2019,03,21,03,12,6.80
2019,03,21,03,13,6.80
2019,03,21,03,14,6.80
2019,03,21,03,15,6.80
2019,03,21,03,16,6.80
2019,03,21,03,17,6.80
2019,03,21,03,18,6.80
2019,03,21,03,19,6.80
2019,03,21,03,20,6.80
2019,03,21,03,21,6.80
2019,03,21,03,22,6.80
2019,03,21,03,23,6.70
2019,03,21,03,24,6.70
2019,03,21,03,25,6.70
2019,03,21,03,26,6.60
2019,03,21,03,27,6.60
2019,03,21,03,28,6.60
2019,03,21,03,29,6.50
2019,03,21,03,30,6.50
2019,03,21,03,31,6.40
2019,03,21,03,32,6.40
2019,03,21,03,33,6.40
2019,03,21,03,34,6.30
2019,03,21,03,35,6.30
2019,03,21,03,36,6.30
2019,03,21,03,37,6.20
2019,03,21,03,38,6.20
2019,03,21,03,39,6.20
2019,03,21,03,40,6.20
2019,03,21,03,41,6.20
2019,03,21,03,42,6.20
2019,03,21,03,43,6.20
2019,03,21,03,44,6.30
2019,03,21,03,45,6.30
2019,03,21,03,46,6.30
2019,03,21,03,47,6.30
2019,03,21,03,48,6.30
2019,03,21,03,49,6.30
2019,03,21,03,50,6.20
2019,03,21,03,51,6.20
2019,03,21,03,52,6.20
2019,03,21,03,53,6.10
2019,03,21,03,54,6.10
2019,03,21,03,55,6.10
2019,03,21,03,56,6.00
2019,03,21,03,57,6.00
2019,03,21,03,58,5.90
2019,03,21,03,59,5.90
2019,03,21,04,00,5.80
2019,03,21,04,01,5.80
2019,03,21,04,02,5.80
2019,03,21,04,03,5.80
2019,03,21,04,04,5.80
2019,03,21,04,05,5.80
2019,03,21,04,06,5.80
2019,03,21,04,07,5.80
2019,03,21,04,08,5.80
2019,03,21,04,09,5.80
2019,03,21,04,10,5.80
2019,03,21,04,11,5.80
2019,03,21,04,12,5.80
2019,03,21,04,13,5.80
2019,03,21,04,14,5.80
2019,03,21,04,15,5.70
2019,03,21,04,16,5.70
2019,03,21,04,17,5.70
2019,03,21,04,18,5.80
2019,03,21,04,19,5.80
2019,03,21,04,20,5.80
2019,03,21,04,21,5.80
2019,03,21,04,22,5.80
2019,03,21,04,23,5.80
2019,03,21,04,24,5.70
2019,03,21,04,25,5.70
2019,03,21,04,26,5.70
2019,03,21,04,27,5.70
2019,03,21,04,28,5.70
2019,03,21,04,29,5.60
2019,03,21,04,30,5.60
2019,03,21,04,31,5.60
2019,03,21,04,32,5.60
2019,03,21,04,33,5.60
2019,03,21,04,34,5.50
2019,03,21,04,35,5.50
2019,03,21,04,36,5.50
2019,03,21,04,37,5.50
2019,03,21,04,38,5.60
2019,03,21,04,39,5.60
2019,03,21,04,40,5.60
2019,03,21,04,41,5.60
2019,03,21,04,42,5.60
2019,03,21,04,43,5.60
2019,03,21,04,44,5.60
2019,03,21,04,45,5.50
2019,03,21,04,46,5.50
2019,03,21,04,47,5.50
2019,03,21,04,48,5.50
2019,03,21,04,49,5.40
2019,03,21,04,50,5.40
2019,03,21,04,51,5.40
2019,03,21,04,52,5.40
2019,03,21,04,53,5.40
2019,03,21,04,54,5.40
2019,03,21,04,55,5.40
2019,03,21,04,56,5.40
2019,03,21,04,57,5.40
2019,03,21,04,58,5.30
2019,03,21,04,59,5.30
2019,03,21,05,00,5.30
2019,03,21,05,01,5.30
2019,03,21,05,02,5.30
2019,03,21,05,03,5.30
2019,03,21,05,04,5.30
2019,03,21,05,05,5.30
2019,03,21,05,06,5.30
2019,03,21,05,07,5.30
2019,03,21,05,08,5.30
2019,03,21,05,09,5.30
2019,03,21,05,10,5.30
2019,03,21,05,11,5.30
2019,03,21,05,12,5.30
2019,03,21,05,13,5.20
2019,03,21,05,14,5.20
2019,03,21,05,15,5.20
2019,03,21,05,16,5.30
2019,03,21,05,17,5.20
2019,03,21,05,18,5.20
2019,03,21,05,19,5.20
2019,03,21,05,20,5.20
2019,03,21,05,21,5.10
2019,03,21,05,22,5.10
2019,03,21,05,23,5.20
2019,03,21,05,24,5.20
2019,03,21,05,25,5.10
2019,03,21,05,26,5.10
2019,03,21,05,27,5.10
2019,03,21,05,28,5.10
2019,03,21,05,29,5.10
2019,03,21,05,30,5.10
2019,03,21,05,31,5.10
2019,03,21,05,32,5.10
2019,03,21,05,33,5.00
2019,03,21,05,34,5.00
2019,03,21,05,35,4.90
2019,03,21,05,36,4.90
2019,03,21,05,37,4.90
2019,03,21,05,38,4.90
2019,03,21,05,39,4.90
2019,03,21,05,40,4.90
2019,03,21,05,41,4.90
2019,03,21,05,42,4.90
2019,03,21,05,43,5.00
2019,03,21,05,44,5.00
2019,03,21,05,45,5.00
2019,03,21,05,46,5.00
2019,03,21,05,47,5.00
2019,03,21,05,48,5.10
2019,03,21,05,49,5.00
2019,03,21,05,50,5.00
2019,03,21,05,51,4.90
2019,03,21,05,52,4.90
2019,03,21,05,53,4.90
2019,03,21,05,54,4.90
2019,03,21,05,55,4.90
2019,03,21,05,56,4.90
2019,03,21,05,57,4.90
2019,03,21,05,58,4.90
2019,03,21,05,59,4.90
2019,03,21,06,00,4.90
2019,03,21,06,01,4.90
2019,03,21,06,02,4.90
2019,03,21,06,03,4.90
2019,03,21,06,04,4.90
2019,03,21,06,05,4.80
2019,03,21,06,06,4.80
2019,03,21,06,07,4.80
2019,03,21,06,08,4.80
2019,03,21,06,09,4.80
2019,03,21,06,10,4.80
2019,03,21,06,11,4.80
2019,03,21,06,12,4.80
2019,03,21,06,13,4.80
2019,03,21,06,14,4.90
2019,03,21,06,15,4.90
2019,03,21,06,16,4.90
2019,03,21,06,17,5.00
2019,03,21,06,18,5.00
2019,03,21,06,19,5.00
2019,03,21,06,20,5.00
2019,03,21,06,21,4.90
2019,03,21,06,22,4.90
2019,03,21,06,23,4.80
2019,03,21,06,24,4.80
2019,03,21,06,25,4.80
2019,03,21,06,26,4.80
2019,03,21,06,27,4.80
2019,03,21,06,28,4.80
2019,03,21,06,29,4.80
2019,03,21,06,30,4.90
2019,03,21,06,31,4.90
2019,03,21,06,32,5.00
2019,03,21,06,33,5.10
2019,03,21,06,34,5.10
2019,03,21,06,35,5.10
2019,03,21,06,36,5.10
2019,03,21,06,37,5.20
2019,03,21,06,38,5.20
2019,03,21,06,39,5.20
2019,03,21,06,40,5.20
2019,03,21,06,41,5.20
2019,03,21,06,42,5.20
2019,03,21,06,43,5.20
2019,03,21,06,44,5.20
2019,03,21,06,45,5.20
2019,03,21,06,46,5.20
2019,03,21,06,47,5.20
2019,03,21,06,48,5.20
2019,03,21,06,49,5.20
2019,03,21,06,50,5.20
2019,03,21,06,51,5.10
2019,03,21,06,52,5.10
2019,03,21,06,53,5.10
2019,03,21,06,54,5.00
2019,03,21,06,55,5.00
2019,03,21,06,56,5.00
2019,03,21,06,57,4.90
2019,03,21,06,58,4.90
2019,03,21,06,59,4.90
2019,03,21,07,00,4.80
2019,03,21,07,01,4.80
2019,03,21,07,02,4.80
2019,03,21,07,03,4.80
2019,03,21,07,04,4.80
2019,03,21,07,05,4.80
2019,03,21,07,06,4.80
2019,03,21,07,07,4.80
2019,03,21,07,08,4.80
2019,03,21,07,09,4.80
2019,03,21,07,10,4.80
2019,03,21,07,11,4.80
2019,03,21,07,12,4.80
2019,03,21,07,13,4.80
2019,03,21,07,14,4.80
2019,03,21,07,15,4.80
2019,03,21,07,16,4.70
2019,03,21,07,17,4.70
2019,03,21,07,18,4.70
2019,03,21,07,19,4.70
2019,03,21,07,20,4.70
2019,03,21,07,21,4.80
2019,03,21,07,22,4.90
2019,03,21,07,23,5.00
2019,03,21,07,24,5.00
2019,03,21,07,25,5.00
2019,03,21,07,26,5.00
2019,03,21,07,27,5.00
2019,03,21,07,28,5.00
2019,03,21,07,29,5.00
2019,03,21,07,30,5.00
2019,03,21,07,31,5.00
2019,03,21,07,32,5.10
2019,03,21,07,33,5.10
2019,03,21,07,34,5.20
2019,03,21,07,35,5.20
2019,03,21,07,36,5.20
2019,03,21,07,37,5.20
2019,03,21,07,38,5.20
2019,03,21,07,39,5.20
2019,03,21,07,40,5.20
2019,03,21,07,41,5.20
2019,03,21,07,42,5.30
2019,03,21,07,43,5.30
2019,03,21,07,44,5.30
2019,03,21,07,45,5.40
2019,03,21,07,46,5.40
2019,03,21,07,47,5.40
2019,03,21,07,48,5.40
2019,03,21,07,49,5.40
2019,03,21,07,50,5.50
2019,03,21,07,51,5.50
2019,03,21,07,52,5.50
2019,03,21,07,53,5.50
2019,03,21,07,54,5.50
2019,03,21,07,55,5.60
2019,03,21,07,56,5.60
2019,03,21,07,57,5.60
2019,03,21,07,58,5.60
2019,03,21,07,59,5.70
2019,03,21,08,00,5.70
2019,03,21,08,01,5.70
2019,03,21,08,02,5.70
2019,03,21,08,03,5.70
2019,03,21,08,04,5.80
2019,03,21,08,05,5.80
2019,03,21,08,06,5.80
2019,03,21,08,07,5.90
2019,03,21,08,08,5.90
2019,03,21,08,09,5.90
2019,03,21,08,10,6.00
2019,03,21,08,11,6.00
2019,03,21,08,12,6.00
2019,03,21,08,13,6.10
2019,03,21,08,14,6.10
2019,03,21,08,15,6.20
2019,03,21,08,16,6.20
2019,03,21,08,17,6.30
2019,03,21,08,18,6.40
2019,03,21,08,19,6.50
2019,03,21,08,20,6.60
2019,03,21,08,21,6.70
2019,03,21,08,22,6.80
2019,03,21,08,23,6.90
2019,03,21,08,24,7.00
2019,03,21,08,25,7.20
2019,03,21,08,26,7.30
2019,03,21,08,27,7.50
2019,03,21,08,28,7.60
2019,03,21,08,29,7.80
2019,03,21,08,30,7.90
2019,03,21,08,31,8.00
2019,03,21,08,32,8.10
2019,03,21,08,33,8.20
2019,03,21,08,34,8.30
2019,03,21,08,35,8.30
2019,03,21,08,36,8.40
2019,03,21,08,37,8.50
2019,03,21,08,38,8.50
2019,03,21,08,39,8.60
2019,03,21,08,40,8.70
2019,03,21,08,41,8.80
2019,03,21,08,42,8.80
2019,03,21,08,43,8.90
2019,03,21,08,44,8.90
2019,03,21,08,45,9.00
2019,03,21,08,46,9.00
2019,03,21,08,47,9.10
2019,03,21,08,48,9.20
2019,03,21,08,49,9.30
2019,03,21,08,50,9.30
2019,03,21,08,51,9.40
2019,03,21,08,52,9.50
2019,03,21,08,53,9.50
2019,03,21,08,54,9.60
2019,03,21,08,55,9.70
2019,03,21,08,56,9.80
2019,03,21,08,57,9.80
2019,03,21,08,58,9.90
2019,03,21,08,59,9.90
2019,03,21,09,00,10.00
2019,03,21,09,01,10.10
2019,03,21,09,02,10.10
2019,03,21,09,03,10.10
2019,03,21,09,04,10.20
2019,03,21,09,05,10.30
2019,03,21,09,06,10.30
2019,03,21,09,07,10.30
2019,03,21,09,08,10.30
2019,03,21,09,09,10.40
2019,03,21,09,10,10.40
2019,03,21,09,11,10.40
2019,03,21,09,12,10.50
2019,03,21,09,13,10.50
2019,03,21,09,14,10.60
2019,03,21,09,15,10.60
2019,03,21,09,16,10.70
2019,03,21,09,17,10.70
2019,03,21,09,18,10.80
2019,03,21,09,19,10.90
2019,03,21,09,20,10.90
2019,03,21,09,21,11.00
2019,03,21,09,22,11.00
2019,03,21,09,23,11.10
2019,03,21,09,24,11.20
2019,03,21,09,25,11.30
2019,03,21,09,26,11.40
2019,03,21,09,27,11.40
2019,03,21,09,28,11.50
2019,03,21,09,29,11.50
2019,03,21,09,30,11.60
2019,03,21,09,31,11.70
2019,03,21,09,32,11.70
2019,03,21,09,33,11.70
2019,03,21,09,34,11.80
2019,03,21,09,35,11.80
2019,03,21,09,36,11.90
2019,03,21,09,37,11.90
2019,03,21,09,38,12.00
2019,03,21,09,39,12.10
2019,03,21,09,40,12.10
2019,03,21,09,41,12.20
2019,03,21,09,42,12.30
2019,03,21,09,43,12.30
2019,03,21,09,44,12.30
2019,03,21,09,45,12.30
2019,03,21,09,46,12.40
2019,03,21,09,47,12.40
2019,03,21,09,48,12.50
2019,03,21,09,49,12.50
2019,03,21,09,50,12.60
2019,03,21,09,51,12.60
2019,03,21,09,52,12.70
2019,03,21,09,53,12.70
2019,03,21,09,54,12.70
2019,03,21,09,55,12.60
2019,03,21,09,56,12.60
2019,03,21,09,57,12.70
2019,03,21,09,58,12.70
2019,03,21,09,59,12.80
2019,03,21,10,00,12.80
2019,03,21,10,01,12.80
2019,03,21,10,02,12.90
2019,03,21,10,03,13.00
2019,03,21,10,04,13.00
2019,03,21,10,05,13.10
2019,03,21,10,06,13.10
2019,03,21,10,07,13.10
2019,03,21,10,08,13.20
2019,03,21,10,09,13.20
2019,03,21,10,10,13.30
2019,03,21,10,11,13.40
2019,03,21,10,12,13.50
2019,03,21,10,13,13.60
2019,03,21,10,14,13.80
2019,03,21,10,15,13.80
2019,03,21,10,16,13.90
2019,03,21,10,17,13.90
2019,03,21,10,18,13.90
2019,03,21,10,19,13.90
2019,03,21,10,20,13.90
2019,03,21,10,21,13.90
2019,03,21,10,22,13.90
2019,03,21,10,23,13.90
2019,03,21,10,24,13.90
2019,03,21,10,25,13.90
2019,03,21,10,26,13.90
2019,03,21,10,27,13.90
2019,03,21,10,28,13.80
2019,03,21,10,29,13.80
2019,03,21,10,30,13.90
2019,03,21,10,31,13.90
2019,03,21,10,32,13.90
2019,03,21,10,33,13.90
2019,03,21,10,34,13.90
2019,03,21,10,35,14.00
2019,03,21,10,36,14.00
2019,03,21,10,37,14.00
2019,03,21,10,38,14.00
2019,03,21,10,39,14.00
2019,03,21,10,40,13.90
2019,03,21,10,41,13.90
2019,03,21,10,42,13.80
2019,03,21,10,43,13.80
2019,03,21,10,44,13.80
2019,03,21,10,45,13.80
2019,03,21,10,46,13.80
2019,03,21,10,47,13.80
2019,03,21,10,48,13.80
2019,03,21,10,49,13.90
2019,03,21,10,50,13.90
2019,03,21,10,51,14.00
2019,03,21,10,52,14.00
2019,03,21,10,53,14.00
2019,03,21,10,54,14.00
2019,03,21,10,55,14.00
2019,03,21,10,56,14.00
2019,03,21,10,57,14.10
2019,03,21,10,58,14.10
2019,03,21,10,59,14.10
2019,03,21,11,00,14.20
2019,03,21,11,01,14.20
2019,03,21,11,02,14.30
2019,03,21,11,03,14.20
2019,03,21,11,04,14.20
2019,03,21,11,05,14.20
2019,03,21,11,06,14.10
2019,03,21,11,07,14.20
2019,03,21,11,08,14.20
2019,03,21,11,09,14.20
2019,03,21,11,10,14.30
2019,03,21,11,11,14.40
2019,03,21,11,12,14.40
2019,03,21,11,13,14.50
2019,03,21,11,14,14.60
2019,03,21,11,15,14.60
2019,03,21,11,16,14.60
2019,03,21,11,17,14.60
2019,03,21,11,18,14.60
2019,03,21,11,19,14.60
2019,03,21,11,20,14.50
2019,03,21,11,21,14.50
2019,03,21,11,22,14.50
2019,03,21,11,23,14.50
2019,03,21,11,24,14.50
2019,03,21,11,25,14.60
2019,03,21,11,26,14.60
2019,03,21,11,27,14.60
2019,03,21,11,28,14.60
2019,03,21,11,29,14.70
2019,03,21,11,30,14.70
2019,03,21,11,31,14.70
2019,03,21,11,32,14.70
2019,03,21,11,33,14.70
2019,03,21,11,34,14.70
2019,03,21,11,35,14.70
2019,03,21,11,36,14.70
2019,03,21,11,37,14.60
2019,03,21,11,38,14.60
2019,03,21,11,39,14.60
2019,03,21,11,40,14.70
2019,03,21,11,41,14.70
2019,03,21,11,42,14.80
2019,03,21,11,43,14.90
2019,03,21,11,44,14.90
2019,03,21,11,45,15.00
2019,03,21,11,46,15.10
2019,03,21,11,47,15.10
2019,03,21,11,48,15.10
2019,03,21,11,49,15.10
2019,03,21,11,50,15.20
2019,03,21,11,51,15.20
2019,03,21,11,52,15.10
2019,03,21,11,53,15.10
2019,03,21,11,54,15.20
2019,03,21,11,55,15.20
2019,03,21,11,56,15.20
2019,03,21,11,57,15.20
2019,03,21,11,58,15.30
2019,03,21,11,59,15.30
2019,03,21,12,00,15.40
2019,03,21,12,01,15.40
2019,03,21,12,02,15.50
2019,03,21,12,03,15.50
2019,03,21,12,04,15.40
2019,03,21,12,05,15.20
2019,03,21,12,06,15.10
2019,03,21,12,07,15.00
2019,03,21,12,08,14.90
2019,03,21,12,09,14.90
2019,03,21,12,10,14.90
2019,03,21,12,11,14.90
2019,03,21,12,12,15.00
2019,03,21,12,13,15.10
2019,03,21,12,14,15.10
2019,03,21,12,15,14.90
2019,03,21,12,16,14.90
2019,03,21,12,17,14.90
2019,03,21,12,18,14.80
2019,03,21,12,19,14.70
2019,03,21,12,20,14.60
2019,03,21,12,21,14.50
2019,03,21,12,22,14.50
2019,03,21,12,23,14.50
2019,03,21,12,24,14.50
2019,03,21,12,25,14.40
2019,03,21,12,26,14.30
2019,03,21,12,27,14.30
2019,03,21,12,28,14.30
2019,03,21,12,29,14.30
2019,03,21,12,30,14.30
2019,03,21,12,31,14.30
2019,03,21,12,32,14.30
2019,03,21,12,33,14.20
2019,03,21,12,34,14.20
2019,03,21,12,35,14.20
2019,03,21,12,36,14.10
2019,03,21,12,37,14.10
2019,03,21,12,38,14.00
2019,03,21,12,39,14.10
2019,03,21,12,40,14.10
2019,03,21,12,41,14.10
2019,03,21,12,42,14.10
2019,03,21,12,43,14.20
2019,03,21,12,44,14.20
2019,03,21,12,45,14.30
2019,03,21,12,46,14.40
2019,03,21,12,47,14.40
2019,03,21,12,48,14.40
2019,03,21,12,49,14.40
2019,03,21,12,50,14.40
2019,03,21,12,51,14.50
2019,03,21,12,52,14.60
2019,03,21,12,53,14.70
2019,03,21,12,54,14.70
2019,03,21,12,55,14.70
2019,03,21,12,56,14.70
2019,03,21,12,57,14.70
2019,03,21,12,58,14.70
2019,03,21,12,59,14.80
2019,03,21,13,00,14.70
2019,03,21,13,01,14.80
2019,03,21,13,02,14.70
2019,03,21,13,03,14.70
2019,03,21,13,04,14.60
2019,03,21,13,05,14.60
2019,03,21,13,06,14.70
2019,03,21,13,07,14.70
2019,03,21,13,08,14.80
2019,03,21,13,09,14.80
2019,03,21,13,10,14.90
2019,03,21,13,11,14.90
2019,03,21,13,12,15.00
2019,03,21,13,13,15.10
2019,03,21,13,14,15.10
2019,03,21,13,15,15.10
2019,03,21,13,16,15.20
2019,03,21,13,17,15.20
2019,03,21,13,18,15.20
2019,03,21,13,19,15.10
2019,03,21,13,20,15.00
2019,03,21,13,21,15.00
2019,03,21,13,22,15.00
2019,03,21,13,23,15.10
2019,03,21,13,24,15.10
2019,03,21,13,25,15.20
2019,03,21,13,26,15.20
2019,03,21,13,27,15.20
2019,03,21,13,28,15.20
2019,03,21,13,29,15.30
2019,03,21,13,30,15.30
2019,03,21,13,31,15.30
2019,03,21,13,32,15.30
2019,03,21,13,33,15.20
2019,03,21,13,34,15.10
2019,03,21,13,35,15.00
2019,03,21,13,36,15.00
2019,03,21,13,37,15.10
2019,03,21,13,38,15.10
2019,03,21,13,39,15.10
2019,03,21,13,40,15.20
2019,03,21,13,41,15.20
2019,03,21,13,42,15.10
2019,03,21,13,43,15.00
2019,03,21,13,44,14.90
2019,03,21,13,45,14.90
2019,03,21,13,46,14.90
2019,03,21,13,47,15.00
2019,03,21,13,48,15.00
2019,03,21,13,49,15.10
2019,03,21,13,50,15.20
2019,03,21,13,51,15.30
2019,03,21,13,52,15.30
2019,03,21,13,53,15.30
2019,03,21,13,54,15.30
2019,03,21,13,55,15.30
2019,03,21,13,56,15.30
2019,03,21,13,57,15.30
2019,03,21,13,58,15.30
2019,03,21,13,59,15.30
2019,03,21,14,00,15.40
2019,03,21,14,01,15.40
2019,03,21,14,02,15.30
2019,03,21,14,03,15.40
2019,03,21,14,04,15.40
2019,03,21,14,05,15.40
2019,03,21,14,06,15.30
2019,03,21,14,07,15.30
2019,03,21,14,08,15.30
2019,03,21,14,09,15.20
2019,03,21,14,10,15.20
2019,03,21,14,11,15.20
2019,03,21,14,12,15.10
2019,03,21,14,13,15.10
2019,03,21,14,14,15.00
2019,03,21,14,15,15.00
2019,03,21,14,16,15.00
2019,03,21,14,17,15.00
2019,03,21,14,18,15.00
2019,03,21,14,19,15.10
2019,03,21,14,20,15.20
2019,03,21,14,21,15.20
2019,03,21,14,22,15.20
2019,03,21,14,23,15.10
2019,03,21,14,24,15.00
2019,03,21,14,25,14.90
2019,03,21,14,26,14.90
2019,03,21,14,27,14.80
2019,03,21,14,28,14.60
2019,03,21,14,29,14.60
2019,03,21,14,30,14.60
2019,03,21,14,31,14.60
2019,03,21,14,32,14.60
2019,03,21,14,33,14.70
2019,03,21,14,34,14.70
2019,03,21,14,35,14.80
2019,03,21,14,36,14.90
2019,03,21,14,37,14.90
2019,03,21,14,38,15.00
2019,03,21,14,39,15.00
2019,03,21,14,40,14.90
2019,03,21,14,41,14.80
2019,03,21,14,42,14.70
2019,03,21,14,43,14.80
2019,03,21,14,44,14.80
2019,03,21,14,45,14.90
2019,03,21,14,46,14.90
2019,03,21,14,47,14.90
2019,03,21,14,48,14.90
2019,03,21,14,49,14.90
2019,03,21,14,50,14.90
2019,03,21,14,51,14.80
2019,03,21,14,52,14.80
2019,03,21,14,53,14.80
2019,03,21,14,54,14.80
2019,03,21,14,55,14.80
2019,03,21,14,56,14.70
2019,03,21,14,57,14.70
2019,03,21,14,58,14.60
2019,03,21,14,59,14.50
2019,03,21,15,00,14.50
2019,03,21,15,01,14.40
2019,03,21,15,02,14.20
2019,03,21,15,03,14.10
2019,03,21,15,04,14.10
2019,03,21,15,05,14.10
2019,03,21,15,06,14.00
2019,03,21,15,07,14.00
2019,03,21,15,08,13.90
2019,03,21,15,09,14.00
2019,03,21,15,10,14.00
2019,03,21,15,11,14.00
2019,03,21,15,12,14.00
2019,03,21,15,13,14.10
2019,03,21,15,14,14.10
2019,03,21,15,15,14.20
2019,03,21,15,16,14.20
2019,03,21,15,17,14.30
2019,03,21,15,18,14.30
2019,03,21,15,19,14.40
2019,03,21,15,20,14.40
2019,03,21,15,21,14.50
2019,03,21,15,22,14.50
2019,03,21,15,23,14.50
2019,03,21,15,24,14.50
2019,03,21,15,25,14.40
2019,03,21,15,26,14.40
2019,03,21,15,27,14.40
2019,03,21,15,28,14.40
2019,03,21,15,29,14.40
2019,03,21,15,30,14.30
2019,03,21,15,31,14.30
2019,03,21,15,32,14.20
2019,03,21,15,33,14.20
2019,03,21,15,34,14.20
2019,03,21,15,35,14.20
2019,03,21,15,36,14.20
2019,03,21,15,37,14.30
2019,03,21,15,38,14.40
2019,03,21,15,39,14.50
2019,03,21,15,40,14.60
2019,03,21,15,41,14.70
2019,03,21,15,42,14.80
2019,03,21,15,43,15.00
2019,03,21,15,44,15.10
2019,03,21,15,45,15.10
2019,03,21,15,46,15.20
2019,03,21,15,47,15.20
2019,03,21,15,48,15.20
2019,03,21,15,49,15.30
2019,03,21,15,50,15.30
2019,03,21,15,51,15.30
2019,03,21,15,52,15.30
2019,03,21,15,53,15.30
2019,03,21,15,54,15.30
2019,03,21,15,55,15.30
2019,03,21,15,56,15.30
2019,03,21,15,57,15.20
2019,03,21,15,58,15.20
2019,03,21,15,59,15.20
2019,03,21,16,00,15.20
2019,03,21,16,01,15.30
2019,03,21,16,02,15.30
2019,03,21,16,03,15.30
2019,03,21,16,04,15.30
2019,03,21,16,05,15.40
2019,03,21,16,06,15.40
2019,03,21,16,07,15.40
2019,03,21,16,08,15.40
2019,03,21,16,09,15.40
2019,03,21,16,10,15.40
2019,03,21,16,11,15.40
2019,03,21,16,12,15.40
2019,03,21,16,13,15.40
2019,03,21,16,14,15.40
2019,03,21,16,15,15.40
2019,03,21,16,16,15.40
2019,03,21,16,17,15.40
2019,03,21,16,18,15.40
2019,03,21,16,19,15.40
2019,03,21,16,20,15.40
2019,03,21,16,21,15.30
2019,03,21,16,22,15.30
2019,03,21,16,23,15.20
2019,03,21,16,24,15.20
2019,03,21,16,25,15.20
2019,03,21,16,26,15.10
2019,03,21,16,27,15.10
2019,03,21,16,28,15.00
2019,03,21,16,29,14.90
2019,03,21,16,30,14.90
2019,03,21,16,31,14.90
2019,03,21,16,32,14.80
2019,03,21,16,33,14.80
2019,03,21,16,34,14.80
2019,03,21,16,35,14.80
2019,03,21,16,36,14.70
2019,03,21,16,37,14.70
2019,03,21,16,38,14.60
2019,03,21,16,39,14.50
2019,03,21,16,40,14.30
2019,03,21,16,41,14.30
2019,03,21,16,42,14.20
2019,03,21,16,43,14.10
2019,03,21,16,44,14.10
2019,03,21,16,45,14.00
2019,03,21,16,46,13.90
2019,03,21,16,47,13.80
2019,03,21,16,48,13.70
2019,03,21,16,49,13.60
2019,03,21,16,50,13.60
2019,03,21,16,51,13.50
2019,03,21,16,52,13.50
2019,03,21,16,53,13.40
2019,03,21,16,54,13.40
2019,03,21,16,55,13.40
2019,03,21,16,56,13.40
2019,03,21,16,57,13.40
2019,03,21,16,58,13.30
2019,03,21,16,59,13.30
2019,03,21,17,00,13.30
2019,03,21,17,01,13.40
2019,03,21,17,02,13.40
2019,03,21,17,03,13.40
2019,03,21,17,04,13.40
2019,03,21,17,05,13.40
2019,03,21,17,06,13.50
2019,03,21,17,07,13.50
2019,03,21,17,08,13.60
2019,03,21,17,09,13.60
2019,03,21,17,10,13.70
2019,03,21,17,11,13.80
2019,03,21,17,12,13.80
2019,03,21,17,13,13.90
2019,03,21,17,14,14.00
2019,03,21,17,15,14.10
2019,03,21,17,16,14.30
2019,03,21,17,17,14.30
2019,03,21,17,18,14.40
2019,03,21,17,19,14.50
2019,03,21,17,20,14.60
2019,03,21,17,21,14.70
2019,03,21,17,22,14.70
2019,03,21,17,23,14.80
2019,03,21,17,24,14.80
2019,03,21,17,25,14.90
2019,03,21,17,26,14.90
2019,03,21,17,27,14.90
2019,03,21,17,28,14.90
2019,03,21,17,29,14.90
2019,03,21,17,30,15.00
2019,03,21,17,31,15.00
2019,03,21,17,32,15.00
2019,03,21,17,33,15.00
2019,03,21,17,34,15.00
2019,03,21,17,35,15.00
2019,03,21,17,36,15.10
2019,03,21,17,37,15.10
2019,03,21,17,38,15.00
2019,03,21,17,39,15.00
2019,03,21,17,40,15.00
2019,03,21,17,41,15.00
2019,03,21,17,42,14.90